Weather History for Muncie, IN

Change the Weather History Date:

Friday, August 10, 2012

  Actual Average Record
Temperature  
Mean Temperature 65 °F 73 °F  
Max Temperature 72 °F 83 °F 91 °F (2010)
Min Temperature 58 °F 63 °F 46 °F (1972)
Degree Days  
Heating Degree Days 0 0  
Month to date heating degree days 0 0  
Since 1 June heating degree days 25 27  
Since 1 July heating degree days 0 3  
Cooling Degree Days 0 8  
Month to date cooling degree days 93 82  
Year to date cooling degree days 957 675  
Since 1 June cooling degree days 779 592  
Growing Degree Days 16 (Base 50)    
Moisture  
Dew Point 59 °F    
Average Humidity 73    
Maximum Humidity 93    
Minimum Humidity 53    
Precipitation  
Precipitation 0.06 in 0.10 in 3.49 in (1969)
Month to date precipitation 1.77 1.09  
Year to date precipitation 17.59 25.70  
Sea Level Pressure  
Sea Level Pressure 29.78 in    
Wind  
Wind Speed 12 mph (NW)    
Max Wind Speed 28 mph    
Max Gust Speed 37 mph    
Visibility 8 miles    
Events Rain , Thunderstorm    
T = Trace of Precipitation, MM = Missing Value Source: NWS Daily Summary

Daily Weather History Graph

Daily Weather History Graph

Search for Another Location

Airport:

Trip Planner

Search our weather history database for the weather conditions in past years. The results will help you decide how hot, cold, wet, or windy it might be!

Date:

Astronomy

Aug. 10, 2012 Rise Set
Actual Time 6:48 AM EDT 8:44 PM EDT
Civil Twilight 6:18 AM EDT 9:14 PM EDT
Nautical Twilight 5:42 AM EDT 9:49 PM EDT
Astronomical Twilight 5:03 AM EDT 10:28 PM EDT
Moon 12:36 AM EDT (8/10) 3:24 PM EDT (8/10)
Length of Visible Light 14h 55m
Length of Day
13h 56m
Last Quarter, 42% of the Moon is Illuminated
Aug 10
Last Quarter
Aug 17
New
Aug 24
First Quarter
Aug 31
Full
Sep 8
Last Quarter

Hourly Weather History & Observations

Time (EDT) Temp. Dew Point Humidity Pressure Visibility Wind Dir Wind Speed Gust Speed Precip Events Conditions
12:22 AM 64.4 °F 62.6 °F 94% 29.81 in 4.0 mi NW 4.6 mph - 0.22 in Rain , Thunderstorm Rain
12:38 AM 64.4 °F 62.6 °F 94% 29.81 in 3.0 mi Variable 5.8 mph - 0.32 in Rain , Thunderstorm Heavy Thunderstorms and Rain
12:45 AM 64.4 °F 62.6 °F 94% 29.78 in 2.5 mi ESE 4.6 mph - 0.36 in Rain , Thunderstorm Heavy Thunderstorms and Rain
12:48 AM 64.4 °F 62.6 °F 94% 29.78 in 3.0 mi ESE 8.1 mph - 0.37 in Rain , Thunderstorm Thunderstorms and Rain
12:51 AM 64.4 °F 62.6 °F 94% 29.78 in 4.0 mi SE 6.9 mph - 0.37 in Rain , Thunderstorm Light Thunderstorms and Rain
12:53 AM 64.9 °F 63.0 °F 93% 29.75 in 5.0 mi Variable 4.6 mph - 0.38 in Rain , Thunderstorm Thunderstorms and Rain
1:11 AM 64.4 °F 62.6 °F 94% 29.74 in 6.0 mi East 10.4 mph - 0.03 in Rain Light Rain
1:34 AM 64.4 °F 62.6 °F 94% 29.76 in 10.0 mi West 5.8 mph - 0.06 in Rain Light Rain
1:53 AM 64.9 °F 63.0 °F 93% 29.72 in 10.0 mi SSE 4.6 mph - 0.06 in   Mostly Cloudy
2:04 AM 64.4 °F 62.6 °F 94% 29.74 in 10.0 mi SSE 3.5 mph - N/A   Scattered Clouds
2:49 AM 64.4 °F 62.6 °F 94% 29.73 in 10.0 mi NW 4.6 mph - N/A   Mostly Cloudy
2:53 AM 64.0 °F 62.1 °F 93% 29.71 in 10.0 mi WNW 3.5 mph - N/A   Mostly Cloudy
3:13 AM 64.4 °F 62.6 °F 94% 29.74 in 1.8 mi WNW 6.9 mph - N/A   Overcast
3:26 AM 64.4 °F 62.6 °F 94% 29.74 in 3.0 mi WNW 5.8 mph - N/A   Overcast
3:53 AM 64.0 °F 63.0 °F 96% 29.72 in 8.0 mi WNW 5.8 mph - N/A   Overcast
4:45 AM 64.4 °F 62.6 °F 94% 29.74 in 8.0 mi NW 5.8 mph - N/A   Overcast
4:53 AM 64.9 °F 63.0 °F 93% 29.71 in 8.0 mi NW 8.1 mph - N/A   Overcast
5:53 AM 64.0 °F 62.1 °F 93% 29.71 in 8.0 mi NNW 5.8 mph - N/A   Overcast
6:45 AM 64.4 °F 60.8 °F 88% 29.76 in 8.0 mi NW 9.2 mph - N/A   Overcast
6:53 AM 64.0 °F 61.0 °F 90% 29.73 in 10.0 mi NW 9.2 mph - N/A   Overcast
7:06 AM 62.6 °F 60.8 °F 94% 29.77 in 10.0 mi NW 6.9 mph - N/A   Overcast
7:53 AM 63.0 °F 61.0 °F 93% 29.75 in 7.0 mi WNW 5.8 mph - 0.00 in   Overcast
8:19 AM 62.6 °F 60.8 °F 94% 29.78 in 10.0 mi NW 10.4 mph - N/A   Overcast
8:53 AM 64.0 °F 60.1 °F 87% 29.76 in 10.0 mi NW 10.4 mph - N/A   Overcast
9:17 AM 64.4 °F 60.8 °F 88% 29.79 in 10.0 mi NNW 11.5 mph - N/A   Overcast
9:40 AM 64.4 °F 60.8 °F 88% 29.80 in 10.0 mi NW 10.4 mph - N/A   Overcast
9:49 AM 62.6 °F 59.0 °F 88% 29.80 in 10.0 mi NW 11.5 mph - N/A   Overcast
9:53 AM 63.0 °F 59.0 °F 87% 29.78 in 10.0 mi NW 9.2 mph - N/A   Overcast
10:15 AM 64.4 °F 60.8 °F 88% 29.80 in 5.0 mi NW 9.2 mph - 0.00 in Rain Light Rain
10:53 AM 66.0 °F 61.0 °F 84% 29.77 in 10.0 mi NNW 9.2 mph - 0.00 in   Overcast
11:05 AM 66.2 °F 60.8 °F 83% 29.80 in 10.0 mi NW 11.5 mph 19.6 mph N/A   Overcast
11:20 AM 69.8 °F 60.8 °F 73% 29.80 in 10.0 mi NW 9.2 mph 17.3 mph N/A   Mostly Cloudy
11:28 AM 68.0 °F 60.8 °F 78% 29.80 in 10.0 mi North - - N/A   Mostly Cloudy
11:53 AM 68.0 °F 60.1 °F 76% 29.78 in 10.0 mi WNW 10.4 mph - N/A   Mostly Cloudy
12:24 PM 69.8 °F 60.8 °F 73% 29.80 in 10.0 mi WNW 11.5 mph 19.6 mph N/A   Mostly Cloudy
12:53 PM 71.1 °F 59.0 °F 66% 29.78 in 10.0 mi NW 12.7 mph 20.7 mph N/A   Mostly Cloudy
1:38 PM 68.0 °F 57.2 °F 68% 29.81 in 9.0 mi NW 19.6 mph 25.3 mph N/A   Overcast
1:53 PM 66.9 °F 62.1 °F 84% 29.78 in 9.0 mi West 9.2 mph - 0.00 in Rain Light Rain
2:53 PM 71.1 °F 57.0 °F 61% 29.79 in 10.0 mi NNW 17.3 mph 27.6 mph 0.01 in   Mostly Cloudy
3:53 PM 71.1 °F 54.0 °F 55% 29.80 in 10.0 mi NNW 20.7 mph 32.2 mph N/A   Partly Cloudy
4:53 PM 69.1 °F 52.0 °F 54% 29.81 in 10.0 mi NNW 25.3 mph 29.9 mph N/A   Mostly Cloudy
5:53 PM 68.0 °F 51.1 °F 55% 29.82 in 10.0 mi NW 15.0 mph 24.2 mph N/A   Scattered Clouds
6:53 PM 66.9 °F 50.0 °F 54% 29.84 in 10.0 mi NNW 12.7 mph 27.6 mph N/A   Clear
7:53 PM 63.0 °F 50.0 °F 63% 29.86 in 10.0 mi NNW 20.7 mph 27.6 mph N/A   Overcast
8:53 PM 62.1 °F 52.0 °F 70% 29.87 in 10.0 mi NNW 15.0 mph 23.0 mph N/A   Overcast
9:01 PM 60.8 °F 51.8 °F 72% 29.89 in 10.0 mi NNW 15.0 mph 21.9 mph N/A   Overcast
9:53 PM 61.0 °F 53.1 °F 75% 29.88 in 10.0 mi NNW 13.8 mph 19.6 mph N/A   Overcast
10:53 PM 60.1 °F 54.0 °F 80% 29.88 in 10.0 mi WNW 10.4 mph 17.3 mph N/A   Overcast
11:53 PM 57.9 °F 55.0 °F 90% 29.88 in 6.0 mi NW 9.2 mph - 0.00 in   Overcast